Precipitable_Water
0.67 0.65 0.60 0.55 0.50 0.45 0.45 0.46 0.49 0.48 0.47 0.44 0.41 0.42 0.47 0.51 0.52 0.52 0.51 0.53 0.56 0.57
0.63 0.55 0.52 0.50 0.47 0.47 0.49 0.50 0.52 0.52 0.51 0.50 0.48 0.45 0.42 0.44 0.49 0.52 0.51 0.52 0.52 0.52
0.52 0.51 0.50 0.45 0.44 0.45 0.47 0.49 0.50 0.51 0.51 0.50 0.50 0.50 0.47 0.44 0.45 0.47 0.48 0.49 0.50 0.52
0.48 0.49 0.46 0.45 0.48 0.50 0.51 0.52 0.49 0.47 0.47 0.46 0.45 0.46 0.47 0.47 0.46 0.44 0.45 0.46 0.47 0.48
0.47 0.46 0.47 0.48 0.47 0.46 0.43 0.46 0.44 0.43 0.42 0.43 0.43 0.43 0.43 0.44 0.45 0.44 0.42 0.42 0.44 0.45
0.48 0.48 0.44 0.42 0.42 0.41 0.40 0.41 0.41 0.40 0.39 0.39 0.40 0.41 0.42 0.42 0.42 0.45 0.45 0.44 0.43 0.44
0.47 0.43 0.39 0.39 0.40 0.40 0.40 0.38 0.38 0.38 0.38 0.39 0.39 0.39 0.40 0.40 0.41 0.42 0.45 0.46 0.45 0.43
0.45 0.39 0.37 0.35 0.36 0.39 0.38 0.38 0.39 0.39 0.39 0.40 0.40 0.40 0.39 0.40 0.40 0.40 0.41 0.43 0.44 0.43
0.44 0.38 0.36 0.34 0.35 0.36 0.36 0.38 0.38 0.38 0.38 0.38 0.39 0.40 0.41 0.40 0.39 0.40 0.40 0.39 0.42 0.42
0.45 0.39 0.37 0.36 0.35 0.35 0.36 0.38 0.38 0.38 0.37 0.36 0.38 0.40 0.40 0.41 0.40 0.39 0.39 0.41 0.41 0.40
0.48 0.43 0.41 0.37 0.35 0.35 0.36 0.37 0.39 0.39 0.38 0.38 0.39 0.40 0.40 0.40 0.40 0.39 0.40 0.41 0.42 0.40
0.51 0.47 0.43 0.38 0.36 0.36 0.36 0.37 0.39 0.41 0.40 0.38 0.39 0.40 0.40 0.40 0.39 0.39 0.39 0.42 0.43 0.40
0.54 0.53 0.46 0.42 0.39 0.38 0.37 0.38 0.40 0.40 0.41 0.40 0.39 0.40 0.40 0.42 0.40 0.38 0.39 0.41 0.42 0.42
0.55 0.56 0.53 0.47 0.44 0.41 0.38 0.38 0.38 0.40 0.41 0.41 0.41 0.40 0.39 0.39 0.40 0.39 0.39 0.39 0.40 0.43
Wind_Speed
36 37 38 40 40 39 39 39 40 42 43 43 43 43 44 43 43 43 43 43 43 44
35 37 39 40 40 41 42 43 44 44 44 44 44 43 43 44 44 42 42 42 42 43
36 39 40 41 42 43 44 44 43 43 43 42 42 42 43 42 42 44 44 42 41 40
38 40 41 42 43 43 42 41 40 38 37 36 36 36 37 39 40 40 41 43 43 40
38 42 42 43 43 42 41 36 33 32 32 32 33 33 33 34 36 38 39 40 42 42
40 43 43 43 42 40 35 30 28 28 27 27 26 26 28 30 33 35 36 37 39 40
41 43 44 43 41 35 29 24 24 24 22 19 19 20 21 24 28 32 34 35 36 37
41 42 42 42 39 31 25 24 24 22 19 17 16 16 17 19 21 25 30 32 34 35
40 42 41 40 36 32 26 24 23 21 18 15 14 14 14 16 18 21 25 28 30 32
39 40 39 38 34 31 28 26 24 21 18 14 11 10 10 14 17 18 22 25 28 31
38 39 39 37 34 30 28 26 24 22 20 16 13 8 2 7 13 16 19 23 26 29
38 38 37 36 33 29 27 25 24 22 20 17 14 11 5 5 10 14 17 20 24 27
37 38 36 34 32 30 26 24 23 22 20 16 14 12 9 7 10 13 16 19 23 25
36 37 36 34 32 30 27 24 23 21 19 16 14 12 10 9 11 14 17 20 21 25
Wind_Direction
312 310 309 306 302 298 294 289 285 282 278 276 272 268 262 258 254 250 246 243 240 239
317 315 313 310 305 300 296 292 287 283 279 275 271 266 262 256 252 247 243 241 239 238
321 319 316 313 309 304 300 296 290 285 280 276 272 266 260 255 250 245 241 238 236 235
326 324 321 318 314 310 305 299 294 289 283 278 273 267 260 253 247 242 238 235 233 233
330 329 326 323 320 316 312 304 300 294 288 281 274 268 259 252 244 239 236 232 230 229
336 335 333 330 326 323 318 312 307 303 296 287 278 269 258 249 241 236 232 229 227 226
342 342 341 339 336 331 328 324 320 316 306 296 285 273 258 248 238 232 228 226 225 224
349 349 349 349 348 344 339 333 329 323 314 303 293 279 261 245 234 227 223 222 221 220
353 355 355 356 358 358 354 348 344 337 326 312 302 285 262 242 229 224 218 215 213 210
356 358 359 360 1 1 2 0 359 359 355 340 324 305 270 235 220 213 209 206 203 201
358 359 1 2 3 3 4 5 7 8 8 8 6 356 308 198 199 199 196 196 195 195
0 1 1 4 5 6 7 9 10 11 12 15 22 33 62 140 174 178 183 186 189 190
2 3 3 4 7 8 7 9 11 13 16 22 30 42 63 108 140 160 170 174 175 179
5 6 7 7 8 10 12 12 11 15 23 28 38 50 68 93 127 140 150 158 165 169